Theta_e
338 338 338 338 338 339 339 339 339 338 336 336 336 336 336 336 336 335 336 336 336 337 336 335 333 332 334 333 332 331 331 329 328 327 326 326 326 325 324 322 321 314 300 298 300 300 301 300 303 303 307 319
338 338 337 338 338 338 339 339 339 338 337 335 335 336 336 336 336 336 335 336 336 336 336 335 334 332 333 333 332 330 330 329 327 326 325 325 324 323 323 320 319 316 303 297 300 299 301 300 301 301 303 313
338 338 337 337 337 338 338 339 339 338 336 335 336 335 335 336 336 336 336 336 336 335 336 335 334 333 333 333 331 330 329 329 327 326 325 323 323 323 324 321 317 314 304 297 299 299 299 299 300 300 304 307
338 338 337 337 337 337 337 338 338 338 337 335 336 336 335 336 335 335 335 335 335 333 334 335 334 333 333 334 331 330 330 329 327 326 325 322 322 323 324 323 318 312 305 298 297 298 299 299 300 301 304 303
338 338 337 337 337 336 336 337 337 337 337 336 334 335 335 335 333 333 333 333 334 333 333 334 335 333 331 334 332 330 331 330 328 327 326 323 322 322 323 324 321 314 305 299 297 298 299 299 299 300 300 302
337 338 337 337 337 336 336 336 336 335 336 335 335 334 333 334 333 332 333 333 334 333 332 332 334 333 331 333 332 331 331 330 329 328 326 325 322 320 322 323 323 319 310 301 297 298 298 298 299 299 298 300
337 337 337 338 337 336 336 335 335 335 335 335 335 335 334 334 334 333 333 334 333 332 332 332 331 332 331 330 331 331 331 329 329 328 327 327 322 318 321 323 323 323 318 307 299 297 298 299 298 299 299 298
336 336 336 337 336 336 336 336 334 335 335 335 335 334 334 334 334 333 334 334 332 331 332 332 330 331 332 331 331 330 330 330 329 328 328 327 323 320 321 323 324 323 322 316 305 298 297 298 298 299 299 298
335 335 336 336 336 335 335 336 335 335 334 334 334 331 331 332 332 332 333 334 332 331 332 332 331 332 333 332 332 331 330 330 328 328 328 327 324 322 322 323 324 323 323 321 315 307 300 297 297 298 299 298
335 334 335 336 336 335 334 335 336 336 334 334 333 332 332 332 332 333 333 334 333 333 332 332 332 332 332 332 332 331 331 330 329 329 328 327 324 323 324 323 323 323 323 322 321 317 311 304 299 297 298 298
334 334 335 334 334 334 334 334 334 334 334 335 334 333 335 335 335 334 333 333 333 333 333 332 332 331 331 331 331 331 331 330 329 329 329 327 326 324 324 324 322 322 323 323 322 320 318 314 306 298 296 297
333 334 334 333 332 333 333 333 333 333 333 334 334 333 334 335 334 334 333 332 332 332 332 331 331 331 331 330 330 330 329 329 329 329 328 327 327 326 325 325 322 321 323 323 322 321 319 317 313 305 298 296
333 333 333 331 332 333 332 333 332 332 332 332 333 334 334 332 331 332 333 333 332 332 331 331 331 331 330 329 330 329 328 329 329 329 328 328 328 327 326 325 322 321 323 322 321 320 319 318 316 312 305 299
333 332 332 331 334 333 331 333 333 331 331 331 332 333 332 331 330 331 332 333 333 332 331 331 332 331 330 329 330 329 328 328 328 328 329 328 328 327 327 325 322 321 323 322 320 319 318 317 316 315 312 307
333 332 333 333 333 331 330 331 330 330 330 330 331 331 331 330 330 331 331 332 333 333 333 333 333 331 330 329 330 329 328 328 328 328 328 328 328 327 326 325 322 322 322 321 320 319 318 317 315 314 314 312
332 331 332 332 330 329 330 330 329 329 330 329 329 329 330 329 330 331 331 330 331 332 333 332 330 329 329 329 329 329 328 328 327 327 327 327 326 325 324 324 323 322 321 321 321 319 318 317 316 314 313 312
329 329 330 330 328 328 328 329 328 327 328 327 327 328 328 328 329 330 330 330 330 330 330 330 328 327 328 328 328 328 327 327 326 326 325 325 325 324 322 321 322 322 321 320 321 320 318 317 316 315 314 314
328 328 327 327 326 326 326 327 326 325 325 325 325 326 327 327 327 328 329 329 329 329 328 328 327 327 327 327 326 327 326 326 325 325 324 324 323 323 321 320 321 322 321 321 321 320 319 317 316 316 315 315
326 326 325 325 325 325 325 325 324 323 323 323 324 324 325 326 326 326 326 327 327 327 327 326 325 325 325 325 325 325 325 325 325 324 323 322 321 320 320 320 320 320 320 320 320 319 318 317 317 316 316 315
324 324 324 324 323 322 322 321 321 321 321 322 322 322 322 323 323 324 324 324 324 325 325 324 323 323 323 323 323 323 323 323 323 322 321 321 320 320 320 319 319 319 319 319 319 319 318 317 317 316 316 315
322 322 322 321 320 320 320 319 319 318 319 319 319 320 320 320 320 320 321 321 322 322 322 322 321 321 321 320 320 320 320 320 320 319 318 318 318 319 319 318 317 317 317 318 318 318 317 317 317 317 316 315
320 320 319 318 317 317 317 317 316 315 316 316 316 317 316 317 317 317 317 318 319 319 318 318 318 317 317 317 317 318 317 317 317 316 316 316 316 316 316 316 315 315 315 315 316 316 316 316 316 316 315 314
317 317 316 314 313 313 313 312 312 312 312 311 312 312 312 313 313 314 314 314 315 315 314 314 314 314 314 314 314 314 314 314 314 314 314 314 314 313 313 312 311 311 312 312 313 313 313 314 314 314 313 311
313 313 312 311 311 310 308 308 308 308 308 308 308 308 309 309 310 310 311 311 312 312 312 311 311 311 311 311 311 311 310 310 310 310 310 310 310 310 309 308 307 308 309 309 310 310 310 311 311 311 310 308
310 309 308 307 307 305 303 303 304 304 304 304 304 304 304 305 305 306 306 307 308 308 307 307 307 307 307 306 306 306 305 305 306 307 307 307 307 307 305 304 304 305 307 308 308 309 309 309 309 309 307 304
310 307 306 305 304 302 300 300 301 300 300 300 300 300 301 301 301 301 302 302 302 303 302 302 302 303 303 302 302 302 302 302 303 304 305 305 306 305 304 303 302 303 305 305 306 307 308 309 308 307 304 303
310 308 306 305 302 301 299 298 299 298 298 298 299 299 299 299 299 299 299 300 300 300 300 300 300 299 300 300 299 299 299 300 300 300 301 302 304 304 304 302 301 301 302 302 304 306 308 308 307 307 305 303
308 307 305 303 301 299 299 297 297 298 297 298 298 298 298 298 298 298 298 298 298 298 298 298 297 297 297 297 297 297 297 297 297 297 298 299 300 302 303 302 301 300 300 300 302 304 305 306 307 307 305 303
304 303 301 300 298 298 297 295 295 295 295 294 295 294 294 294 294 294 294 294 294 294 294 294 293 294 294 294 294 293 293 294 294 295 295 296 297 298 300 301 300 299 299 299 299 301 302 304 305 304 302 302
301 300 298 297 296 295 293 292 291 290 289 289 289 289 289 290 289 289 289 289 289 289 289 289 289 289 289 289 289 289 289 290 290 291 291 292 293 294 297 298 297 298 298 297 297 298 299 300 301 300 300 301
300 300 298 297 295 293 291 289 288 287 287 286 286 286 287 287 287 287 287 287 287 287 287 287 287 287 287 287 287 287 287 287 287 287 288 288 288 289 291 293 294 295 296 295 295 296 297 297 298 299 299 299
Wind_Speed
15 14 13 12 12 12 10 9 9 7 7 7 7 8 9 8 6 5 5 4 4 4 5 5 5 6 5 3 3 4 5 6 8 10 11 11 12 13 14 15 14 11 8 6 6 6 7 7 7 6 6 5
16 16 14 13 13 12 11 10 9 8 8 8 9 8 9 10 8 7 6 5 4 4 5 4 3 4 4 3 2 3 4 6 8 9 10 11 12 15 15 16 13 10 7 6 5 5 6 6 6 6 6 5
16 17 16 14 14 12 12 11 9 9 8 9 9 9 9 10 10 8 8 7 6 4 4 4 3 3 4 4 2 2 4 7 9 8 9 10 11 14 16 17 14 9 7 6 5 5 5 6 6 6 6 4
14 16 16 15 14 14 12 11 10 9 9 9 9 10 10 10 10 10 9 9 8 6 5 5 5 4 4 4 3 2 6 8 8 7 8 9 10 13 15 17 16 10 7 6 5 5 5 5 6 6 6 5
13 15 16 16 15 14 13 12 12 11 10 10 10 10 10 11 10 9 9 9 8 8 6 6 6 4 5 6 5 3 6 7 6 6 7 10 11 11 14 16 17 13 8 7 6 6 6 5 6 5 5 5
11 13 15 15 15 14 13 13 12 11 11 11 11 10 9 9 9 9 8 7 7 7 7 7 7 6 7 7 6 5 6 6 5 8 8 13 14 9 12 15 16 15 10 7 7 6 6 6 6 5 5 5
9 11 12 13 13 14 13 13 12 11 12 11 11 11 9 8 9 10 8 7 9 8 8 8 7 8 9 7 8 8 7 6 6 9 9 13 14 9 11 14 15 16 14 9 7 7 7 6 6 5 5 5
7 8 10 11 12 13 13 12 11 11 12 12 12 12 10 9 9 10 8 8 10 9 8 7 7 9 12 11 10 10 8 7 7 7 8 11 12 10 10 12 13 15 15 12 9 7 7 7 7 6 6 5
6 7 7 8 9 11 12 12 12 12 11 11 11 11 10 10 11 10 9 8 8 7 7 7 7 9 11 12 12 10 7 6 6 4 5 9 10 9 9 11 12 13 14 14 11 9 8 8 8 8 7 7
8 7 6 7 7 7 9 10 11 11 12 11 10 10 11 11 12 12 11 10 9 7 7 8 7 7 8 8 10 9 7 5 5 4 4 7 7 8 9 10 11 12 12 13 12 11 9 8 9 9 9 8
8 7 7 6 6 5 6 7 7 5 8 11 9 10 12 13 14 13 12 11 11 9 8 9 7 6 5 5 7 9 8 7 8 7 4 4 5 7 8 9 10 11 11 12 12 12 11 9 8 9 9 10
8 6 6 6 6 4 4 4 5 3 4 6 5 6 8 10 11 12 14 12 10 10 9 9 8 7 6 5 6 7 8 9 10 10 5 4 5 7 5 7 9 9 11 13 12 12 11 10 9 8 9 10
7 6 5 5 5 4 2 0 1 1 2 2 2 3 3 5 6 6 11 13 10 9 9 9 8 8 7 6 7 5 6 8 10 11 7 6 7 8 5 5 8 9 10 12 12 12 11 11 10 9 9 9
7 6 6 7 4 4 4 3 4 3 2 2 2 1 1 2 3 5 3 7 10 10 10 9 7 6 6 5 6 5 6 6 8 12 11 9 8 9 6 3 6 7 8 10 10 11 11 11 11 11 10 10
11 9 8 10 7 6 6 2 4 5 3 2 2 3 3 3 3 5 7 3 6 11 12 11 7 5 5 5 5 5 5 5 7 12 14 12 10 8 7 3 4 5 5 6 8 8 9 9 9 10 10 10
13 11 10 10 9 8 7 4 5 6 4 3 2 2 2 3 3 4 7 8 2 5 9 9 5 2 3 4 6 5 5 5 6 10 13 13 10 9 7 5 4 4 4 4 6 8 7 7 8 8 8 9
13 12 11 10 11 10 9 9 10 9 8 7 5 5 4 5 4 5 7 6 6 4 3 5 4 1 0 2 3 3 3 4 5 8 9 9 8 8 6 4 6 6 6 6 7 8 8 8 7 7 7 7
15 16 16 16 16 14 12 13 13 12 12 12 11 10 9 9 7 8 8 6 6 7 6 6 5 3 2 2 2 2 3 4 5 5 6 6 6 6 4 4 7 8 8 9 9 9 10 9 8 7 7 6
20 21 20 18 18 17 15 15 16 16 16 17 17 16 14 12 10 8 8 7 7 7 6 6 6 6 5 4 2 2 2 4 4 5 5 5 4 4 4 5 7 8 7 8 9 10 10 11 10 9 8 8
22 22 22 20 21 22 23 23 24 22 21 21 21 20 18 16 14 13 11 10 8 7 7 6 7 7 7 6 5 5 4 3 4 5 4 4 4 4 5 6 6 7 7 7 8 9 11 11 11 11 11 10
25 25 25 25 26 27 28 29 28 27 25 25 24 23 22 21 20 20 18 17 15 14 14 12 12 11 10 10 9 9 9 9 9 9 8 7 7 5 5 6 6 6 6 6 7 9 10 10 11 11 10 10
27 27 28 28 29 29 29 28 28 27 25 25 24 23 23 22 22 22 21 20 19 19 18 17 17 16 15 14 13 13 13 13 12 12 10 9 9 7 6 6 6 7 8 8 8 8 8 8 9 9 10 9
28 28 28 29 29 28 28 27 26 25 24 24 23 22 21 20 21 20 20 20 20 20 19 18 18 17 15 14 14 13 13 13 12 11 11 9 9 8 8 8 9 10 11 11 9 9 8 8 8 9 8 6
29 29 29 29 28 28 28 27 26 25 24 23 21 21 20 19 19 19 18 18 18 18 18 17 16 15 15 14 13 13 14 14 13 12 11 10 11 9 9 12 12 13 12 9 8 8 7 7 7 6 5 3
26 25 26 27 28 28 29 28 27 26 25 24 23 23 22 22 21 19 19 18 18 18 18 18 18 17 18 17 17 17 17 17 15 15 12 10 11 11 10 13 15 15 11 7 9 8 6 4 3 3 2 2
22 22 23 25 27 28 29 29 29 28 27 26 26 25 25 24 23 22 22 21 21 21 21 21 21 20 20 20 20 20 19 19 18 18 16 11 10 10 11 12 16 18 12 8 11 9 6 3 1 1 3 4
21 22 24 25 27 28 29 30 30 29 29 27 27 26 26 25 24 24 23 23 22 22 22 22 22 21 20 20 20 20 20 20 19 19 19 16 11 9 10 11 15 18 15 11 11 7 5 4 4 1 5 9
22 23 24 25 27 29 30 31 30 30 29 28 27 27 26 26 25 25 24 24 23 23 23 23 23 22 22 21 21 22 22 21 21 20 19 19 16 11 10 11 13 16 16 14 11 7 4 4 4 0 3 15
25 25 26 27 27 27 28 29 28 29 29 29 29 29 29 28 27 27 27 27 27 27 27 26 26 26 25 25 26 26 26 25 24 22 21 20 18 15 11 10 10 12 14 16 14 9 5 3 3 3 9 14
26 27 26 24 21 21 23 23 23 25 28 30 31 31 30 29 29 29 29 28 28 28 28 27 27 27 27 27 27 27 27 26 25 24 24 23 21 20 14 10 11 11 11 13 15 12 8 5 4 5 10 9
25 26 26 25 24 24 23 22 21 24 27 30 31 31 30 29 28 28 28 28 27 27 26 26 26 26 26 26 26 26 25 26 25 24 23 23 23 22 19 14 12 12 10 10 13 12 9 7 5 5 7 5
Wind_Direction
222 218 212 216 223 224 221 216 209 212 224 225 221 220 224 227 223 227 239 243 237 214 189 181 171 162 155 142 115 61 34 27 20 18 14 6 1 359 357 353 352 354 356 4 23 42 48 54 56 63 78 76
227 228 221 216 222 229 230 225 220 218 226 232 228 225 227 230 229 231 244 254 247 222 202 186 171 177 171 157 133 35 11 9 9 16 17 11 8 5 4 1 354 353 355 358 10 33 42 47 51 54 66 70
228 232 230 225 220 226 233 231 231 228 231 237 234 232 232 232 231 233 242 253 256 239 216 203 200 213 200 175 162 348 342 352 0 7 7 10 13 9 8 7 3 354 354 359 1 20 32 39 43 47 52 57
228 233 232 232 227 224 229 233 237 237 240 243 242 239 238 238 237 236 239 248 252 246 234 219 215 227 229 208 207 297 320 335 350 354 359 11 15 13 12 10 10 4 354 356 354 6 17 28 34 38 40 41
222 229 230 230 232 230 227 233 237 238 242 247 247 246 244 245 245 242 242 248 252 253 249 227 213 229 242 229 221 259 310 322 336 331 346 9 9 15 17 12 14 13 1 355 351 353 2 13 21 25 30 31
216 222 228 226 229 232 229 233 237 237 239 245 246 247 248 246 246 243 243 247 249 250 248 233 218 230 244 239 232 246 287 295 306 310 322 354 359 15 24 15 13 14 8 356 350 347 350 358 2 4 14 21
217 217 224 223 226 230 230 235 238 236 236 239 241 244 247 242 243 244 242 243 243 243 244 245 235 232 240 245 243 246 265 272 283 306 322 348 359 17 29 19 13 14 12 2 352 345 344 344 343 346 353 6
218 217 217 219 226 228 228 233 238 240 238 235 237 241 244 240 245 251 247 244 250 249 245 252 250 240 236 229 229 237 247 258 272 299 326 344 1 21 34 24 12 11 13 9 0 349 342 338 335 335 339 348
211 216 215 218 224 230 230 233 238 239 235 233 234 239 239 241 247 251 245 235 245 245 236 245 250 253 246 224 216 223 230 246 265 279 321 342 2 23 34 28 15 11 11 10 7 359 347 339 336 332 333 335
204 208 211 216 211 224 235 244 249 239 233 231 233 242 238 240 246 247 244 230 226 224 222 232 237 253 258 239 229 228 230 244 258 255 306 344 6 20 25 28 20 11 7 9 7 2 353 343 338 333 330 330
191 200 203 212 206 214 228 249 271 257 244 240 240 253 245 244 246 242 243 235 228 225 221 223 224 231 235 240 243 237 244 258 255 253 287 336 4 15 17 22 19 13 8 6 5 3 358 350 340 334 330 329
177 191 200 203 193 196 215 251 279 282 269 261 264 275 262 263 265 249 240 236 234 231 228 233 230 228 237 242 232 233 252 261 253 248 261 306 339 353 357 11 13 12 11 6 2 1 359 356 346 334 328 327
162 170 176 175 172 176 174 112 271 249 299 307 285 273 279 306 319 289 248 235 235 236 233 240 236 232 249 246 231 255 275 262 252 248 255 285 312 327 329 1 8 10 17 13 6 1 357 357 351 340 332 327
148 157 145 148 161 165 159 104 102 113 60 56 83 98 68 359 6 10 305 235 239 247 243 239 234 243 261 245 236 267 276 259 254 250 253 268 287 308 309 341 12 10 15 15 13 7 359 356 352 347 341 333
151 162 144 144 155 147 149 124 108 116 85 86 72 56 59 58 50 33 38 44 246 244 240 231 220 241 268 259 247 257 258 250 249 247 248 251 264 288 286 294 3 357 357 4 6 6 5 2 359 354 348 341
146 150 144 144 146 129 127 125 119 111 90 98 80 39 51 76 64 40 53 54 24 234 222 210 195 227 275 263 237 234 256 259 251 251 248 247 261 281 275 272 288 299 321 338 345 351 356 359 360 0 359 355
140 133 135 129 124 114 105 104 102 93 84 83 80 73 73 86 87 66 73 75 61 66 141 154 134 106 355 289 248 236 289 294 278 266 254 250 266 278 276 277 286 301 322 323 328 338 342 345 350 354 357 1
128 123 119 110 108 106 100 98 95 91 90 88 84 82 78 79 74 61 66 80 82 75 81 94 92 84 60 1 338 347 340 334 323 299 281 274 274 279 283 295 301 310 317 318 326 332 336 336 334 338 340 342
114 116 115 110 106 104 103 102 99 95 93 91 88 84 81 80 77 69 65 67 74 78 67 58 60 59 50 40 30 21 351 344 348 337 318 307 309 320 318 305 304 308 307 314 327 328 327 325 321 325 326 324
112 112 112 112 109 107 104 100 97 94 92 90 88 86 84 84 86 87 86 83 79 81 76 64 60 61 62 69 75 79 72 50 41 29 9 359 359 348 338 331 322 320 312 307 309 311 314 314 316 322 324 324
113 112 110 110 108 107 104 99 96 93 92 89 87 87 86 86 87 88 88 88 88 87 86 85 82 79 77 80 84 85 80 77 76 70 65 56 46 33 12 3 355 342 331 319 305 303 307 308 313 319 321 323
112 112 110 107 105 103 100 98 96 94 91 89 88 87 87 88 87 87 87 87 88 88 87 86 84 82 79 76 76 74 74 74 75 76 71 61 56 51 42 27 10 357 343 334 324 314 312 311 311 312 313 319
113 112 110 106 103 101 98 96 95 93 90 88 87 87 86 86 86 86 87 87 88 88 88 86 83 81 77 72 69 66 69 68 64 63 58 53 52 43 38 31 15 5 351 339 332 329 328 321 313 305 306 313
111 109 107 105 102 98 95 94 92 89 89 88 88 88 87 86 85 85 86 86 87 86 86 85 82 80 76 71 68 65 66 63 60 61 57 53 50 44 38 33 24 12 358 343 335 334 331 325 321 314 307 314
109 106 103 101 99 96 93 92 91 89 89 90 89 89 88 87 87 86 86 85 86 86 85 83 81 79 76 74 71 70 69 66 64 64 64 58 51 54 48 35 28 18 8 353 345 337 324 315 323 334 326 77
111 107 104 102 101 99 96 94 94 93 92 91 91 90 89 88 87 86 85 84 84 84 84 82 80 77 78 78 74 71 69 65 62 59 61 58 49 55 54 43 32 26 27 7 345 332 319 325 342 353 118 58
114 112 110 108 105 103 100 97 96 96 95 94 92 91 89 88 87 86 84 83 82 81 81 80 79 77 76 76 74 71 66 62 60 57 57 56 51 49 48 47 37 33 37 15 347 331 319 344 345 165 122 6
116 115 114 112 108 106 102 99 99 98 95 94 92 90 89 87 86 86 85 83 82 81 81 81 81 79 77 76 75 73 69 65 62 60 58 57 57 55 45 44 40 37 40 31 15 357 321 315 326 300 12 342
118 116 114 111 108 105 103 99 98 96 94 93 92 91 90 89 89 88 87 85 84 83 82 81 81 80 78 76 75 73 71 69 66 64 64 62 61 62 54 47 45 41 39 41 40 28 2 332 330 344 337 332
123 120 117 114 111 107 102 97 93 94 95 95 94 93 92 92 90 88 87 85 83 82 80 79 77 76 75 73 72 71 70 68 64 62 62 62 61 62 61 54 50 45 39 42 44 42 41 27 347 329 327 326
127 127 126 123 118 111 104 100 97 98 99 98 97 96 94 91 89 86 84 83 80 79 77 75 74 73 71 71 70 69 67 66 63 60 58 58 57 58 58 56 52 43 38 41 39 39 40 29 5 339 334 337